Regional Weather Roundup
Issued by NWS Newport/Morehead, NC

Current Version | Previous Version | Graphics & Text | Print | Product List | Glossary Off
Versions: 1 2 3 4 5 6 7 8 9 10 11 12 13 14 15 16 17 18 19 20 21 22 23 24 25 26 27 28 29 30 31 32 33 34 35 36 37 38 39 40 41 42 43 44 45 46 47 48 49 50

000
ASUS42 KMHX 131822
RWRMHX
WEATHER ROUNDUP FOR EASTERN NORTH CAROLINA
NATIONAL WEATHER SERVICE NEWPORT/MOREHEAD CITY NC
200 PM EDT SUN JUL 13 2014

NOTE: "FAIR" INDICATES FEW OR NO CLOUDS BELOW 12,000 FEET
WITH NO SIGNIFICANT WEATHER AND/OR OBSTRUCTIONS TO VISIBILITY

NCZ015>017-031-032-045>047-102-103-131900-
NORTH COAST

CITY           SKY/WX    TMP DP  RH WIND       PRES   REMARKS
EDENTON        MOSUNNY   86  72  63 S6        30.10F
ELIZABETH CITY PTSUNNY   86  72  62 S9        30.11S
KITTY HAWK     CLEAR     84  73  69 SE12      30.11F
MANTEO         NOT AVBL

$$

NCZ045>047-081-094-103-104-131900-
CENTRAL COAST

CITY           SKY/WX    TMP DP  RH WIND       PRES   REMARKS
FRISCO         SUNNY     85  71  63 S8        30.14F
SWANQUARTER      N/A     88 N/A N/A S7G13     30.09S

$$

NCZ095-097-098-100-101-131900-
SOUTHERN COAST

CITY           SKY/WX    TMP DP  RH WIND       PRES   REMARKS
BEAUFORT       MOSUNNY   85  73  67 S12       30.13F
CEDAR ISLAND     N/A     86 N/A N/A SE12      30.15S
JACKSONVILLE   PTSUNNY   86  74  67 S10       30.11F
NEWPORT        NOT AVBL
PINEY ISLAND   CLOUDY    86  75  69 S7        30.11F
WILMINGTON     PTSUNNY   87  75  67 S15       30.12F


$$

NCZ011>013-027>030-043-044-078>080-089-090>093-098-131900-
COASTAL PLAIN

CITY           SKY/WX    TMP DP  RH WIND       PRES   REMARKS
AHOSKIE        SUNNY     87  68  53 S5        30.09F
CLINTON        MOSUNNY   88  73  60 W3        30.11F
ELIZABETHTOWN  PTSUNNY   87  69  55 SW5       30.11F
GOLDSBORO      MOSUNNY   88  73  61 VRB6      30.09F
GREENVILLE     SUNNY     88  72  58 S8        30.12S
HAVELOCK       PTSUNNY   85  72  65 S7        30.12F
KENANSVILLE    MOSUNNY   87  69  55 CALM      30.12F
KINSTON        MOSUNNY   88  70  55 S9        30.12F
NEW BERN       PTSUNNY   90  69  50 CALM      30.12F
RICHLANDS      PTSUNNY   90  70  51 SW8       30.11F
ROANOKE RAPIDS NOT AVBL
ROCKY MOUNT    SUNNY     89  69  51 VRB5      30.10F
WASHINGTON     MOSUNNY   85  70  60 S5        30.11F
WHITEVILLE     PTSUNNY   87  71  57 S6        30.11F

$$

AMZ130-135-150-152-154-156-158-170-250-252-270-ANZ085-086-088-633-658-670-131900-
MARINE OBSERVATIONS

STATION/POSITION TIME  TEMP    WIND        PRES    WAVE   SWELL
                       AIR SEA DIR/SP/G            HT/PER HT/PER
                 (UTC) (F)     (DEG/KT/KT) (MB)    (FT/S) (FT/S)
CHESAPEAKE LIGHT NOT AVBL
BUOY 44014       1800   76 78  150/  8/ 10 1019.9    2/ 7   2/ 7
DUCK             1800   78 73  140/ 13/ 15 1019.0
2E DUCK          1800                        N/A     2/ 7
OREGON INLET     1800   81 79  160/ 11/ 14 1020.2
BUOY 44095       1800      77                N/A     2/ 7
HATTERAS CG      1800   82 82  150/  6/  9 1020.9
DIAMOND BUOY     1800          VRB  4/  6  1020.6    2/ 8   2/ 8
17S OCRACOKE INL NOT AVBL
CAPE LOOKOUT     1800   81     170/  7/  8 1020.3
BEAUFORT LAB     1800   81 83  190/ 11/ 12 1019.8
30 SE NEW RIVER  1800   80 85  170/  4/  6 1021.2    2/ 7   2/ 7
5 SE WRIGHTSVILL 1800   78 83  190/ 12/ 14 1021.0
FRYING PAN BUOY  NOT AVBL
BUOY 41001       NOT AVBL
BUOY 41002       1724   82 86   CALM  /  2 1022.0    2/ 8   2/ 8
BUOY 41004       1800   78 82  180/  2/  4 1020.1    2/ 7   2/ 7

$$


USA.gov is the U.S. government's official web portal to all federal, state and local government web resources and services.